Waarnemingen

Advertentie
Mijn weer
Tomelloso, Spanje (8276): temperatuur & dauwpunt: 16.09.2020 11:00:00 - 22.09.2020 11:00:00 (CEST)Tomelloso, Spanje (8276): windsnelheid & windstoten: 16.09.2020 11:00:00 - 22.09.2020 11:00:00 (CEST)Tomelloso, Spanje (8276): windrichting: 16.09.2020 11:00:00 - 22.09.2020 11:00:00 (CEST)Tomelloso, Spanje (8276): luchtdruk: 16.09.2020 11:00:00 - 22.09.2020 11:00:00 (CEST)Tomelloso, Spanje (8276): zicht: 16.09.2020 11:00:00 - 22.09.2020 11:00:00 (CEST)Tomelloso, Spanje (8276): Zonneschijnduur: 16.09.2020 11:00:00 - 22.09.2020 11:00:00 (CEST)Tomelloso, Spanje (8276): neerslag: 16.09.2020 11:00:00 - 22.09.2020 11:00:00 (CEST)
Datum & Tijd tt [°C] td [°C] ff [km/u] ff [kn] fx [km/u] fx [kn] dd ppp [hPa] vv [km] sd [min] rr [mm]
22.09.2020 11:00:00 19,9 9,4 8 5 18 10 WZW 1016,2 11 60 0,0
22.09.2020 10:00:00 - - - - - - - - - - -
22.09.2020 09:00:00 14,4 8,5 7 4 13 7 ZZW 1017,3 11 7 0,0
22.09.2020 08:00:00 13,2 8,3 8 4 11 6 ZZW 1017,3 11 0 -
22.09.2020 07:00:00 13,9 8,3 6 3 9 5 ZZW 1016,9 11 0 0,0
22.09.2020 06:00:00 14,3 8,0 8 4 13 7 ZZW 1017,1 11 0 0,0
22.09.2020 05:00:00 - - - - - - - - - - -
22.09.2020 04:00:00 - - - - - - - - - - -
22.09.2020 03:00:00 16,1 7,3 7 4 13 7 ZW 1017,5 12 0 0,0
22.09.2020 02:00:00 16,3 7,6 7 4 12 7 ZW 1017,6 11 0 -
22.09.2020 01:00:00 17,5 8,7 4 2 13 7 WZW 1017,5 11 0 0,0
22.09.2020 00:00:00 17,9 8,8 7 4 18 10 WZW 1017,3 12 0 0,0
21.09.2020 23:00:00 19,7 7,4 7 4 14 8 W 1016,5 9 0 0,0
21.09.2020 22:00:00 21,0 7,6 5 3 14 8 WZW 1015,9 11 0 0,0
21.09.2020 21:00:00 22,2 7,6 6 4 13 7 WZW 1015,3 11 0 0,0
21.09.2020 20:00:00 22,9 6,2 8 4 19 10 W 1015,1 11 22 -
21.09.2020 19:00:00 24,8 6,1 9 5 21 11 W 1014,5 12 60 0,0
21.09.2020 18:00:00 25,0 8,0 7 4 22 12 W 1014,5 12 60 0,0
21.09.2020 17:00:00 25,1 8,5 10 5 26 14 W 1014,8 14 60 0,0
21.09.2020 16:00:00 24,5 9,7 9 5 24 13 WZW 1015,4 11 60 0,0
21.09.2020 15:00:00 24,3 10,5 9 5 26 14 W 1015,9 10 49 0,0
21.09.2020 14:00:00 23,3 11,3 9 5 22 12 W 1016,7 13 44 -
21.09.2020 13:00:00 - - - - - - - - - - -
21.09.2020 12:00:00 20,7 13,0 5 3 14 8 WZW 1018,2 11 60 0,0
21.09.2020 11:00:00 - - - - - - - - - - -
21.09.2020 10:00:00 17,0 13,0 6 3 11 6 ZW 1018,7 10 23 0,0
21.09.2020 09:00:00 15,0 12,1 4 2 10 5 ZZW 1019,1 11 0 0,0
21.09.2020 08:00:00 14,2 11,7 5 3 10 5 ZZW 1018,9 12 0 -
21.09.2020 07:00:00 14,5 12,0 6 3 13 7 ZZW 1018,6 11 0 0,0
21.09.2020 06:00:00 15,2 12,1 6 3 11 6 ZW 1018,4 11 0 0,0
21.09.2020 05:00:00 15,2 12,0 7 4 12 6 ZZW 1018,4 11 0 0,0
21.09.2020 04:00:00 15,8 12,2 6 3 13 7 ZW 1018,5 12 0 0,0
21.09.2020 03:00:00 15,8 12,0 6 3 10 5 ZW 1018,7 11 0 0,0
21.09.2020 02:00:00 16,3 12,1 6 3 9 5 ZZW 1018,8 11 0 -
21.09.2020 01:00:00 15,7 12,6 4 2 8 4 Z 1019,2 11 0 0,0
21.09.2020 00:00:00 - - - - - - - - - - -
20.09.2020 23:00:00 - - - - - - - - - - -
20.09.2020 22:00:00 20,1 12,3 5 3 14 7 WZW 1017,6 11 0 0,0
20.09.2020 21:00:00 20,6 12,3 5 3 15 8 WZW 1017,0 12 0 0,0
20.09.2020 20:00:00 21,5 11,8 10 5 23 12 W 1016,3 10 21 -
20.09.2020 19:00:00 22,9 11,6 10 6 27 15 W 1015,8 11 59 0,0
20.09.2020 18:00:00 23,6 11,3 9 5 29 15 WZW 1015,6 12 56 0,0
20.09.2020 17:00:00 - - - - - - - - - - -
20.09.2020 16:00:00 - - - - - - - - - - -
20.09.2020 15:00:00 22,4 12,6 14 7 31 17 W 1017,2 12 33 0,0
20.09.2020 14:00:00 21,4 12,7 11 6 29 16 W 1017,9 12 27 -
20.09.2020 13:00:00 21,0 13,2 12 7 29 16 W 1018,1 10 36 0,0
20.09.2020 12:00:00 - - - - - - - - - - -
20.09.2020 11:00:00 - - - - - - - - - - -
20.09.2020 10:00:00 - - - - - - - - - - -
20.09.2020 09:00:00 15,7 13,9 8 5 16 9 ZW 1019,3 11 35 0,0
20.09.2020 08:00:00 15,0 13,6 5 3 11 6 ZW 1018,9 10 0 -
20.09.2020 07:00:00 15,4 13,8 6 4 12 7 ZW 1018,8 11 0 0,0
20.09.2020 06:00:00 15,2 13,6 6 4 15 8 ZZW 1018,9 12 0 0,0
20.09.2020 05:00:00 - - - - - - - - - - -
20.09.2020 04:00:00 - - - - - - - - - - -
20.09.2020 03:00:00 15,6 13,7 9 5 19 10 ZZW 1019,2 12 0 0,0
20.09.2020 02:00:00 15,7 13,8 9 5 20 11 ZZW 1019,2 12 0 -
20.09.2020 01:00:00 16,1 13,9 14 7 21 11 ZZW 1019,1 12 0 0,0
20.09.2020 00:00:00 - - - - - - - - - - -
19.09.2020 23:00:00 - - - - - - - - - - -
19.09.2020 22:00:00 18,6 14,0 10 5 22 12 ZW 1017,7 11 0 0,0
19.09.2020 21:00:00 19,3 13,7 11 6 22 12 ZW 1016,6 10 0 0,0
19.09.2020 20:00:00 20,4 12,6 11 6 25 13 WZW 1016,0 13 22 -
19.09.2020 19:00:00 21,5 12,3 13 7 27 15 WZW 1015,6 12 58 0,0
19.09.2020 18:00:00 22,2 12,1 16 8 31 17 WZW 1015,2 12 50 0,0
19.09.2020 17:00:00 21,6 12,4 13 7 29 16 W 1015,4 11 14 0,0
19.09.2020 16:00:00 - - - - - - - - - - -
19.09.2020 15:00:00 21,7 12,0 18 10 39 21 WZW 1016,0 11 50 0,0
19.09.2020 14:00:00 21,0 13,0 19 10 35 19 W 1016,5 10 52 -
19.09.2020 13:00:00 - - - - - - - - - - -
19.09.2020 12:00:00 19,3 13,5 11 6 31 17 WZW 1017,3 13 25 0,0
19.09.2020 11:00:00 18,2 13,3 11 6 34 18 WZW 1017,4 12 37 0,0
19.09.2020 10:00:00 17,2 13,9 10 5 19 11 ZW 1017,3 12 21 0,0
19.09.2020 09:00:00 15,6 13,5 5 3 13 7 ZW 1017,6 13 0 0,0
19.09.2020 08:00:00 14,8 13,2 6 3 17 9 Z 1017,3 11 0 -
19.09.2020 07:00:00 14,7 13,5 12 6 36 19 ZZW 1016,6 11 0 0,0
19.09.2020 06:00:00 16,1 13,3 14 8 27 15 ZW 1015,8 12 0 0,0
19.09.2020 05:00:00 - - - - - - - - - - -
19.09.2020 04:00:00 - - - - - - - - - - -
19.09.2020 03:00:00 16,3 13,8 8 4 20 11 Z 1016,2 12 0 0,0
19.09.2020 02:00:00 16,5 14,1 6 3 24 13 Z 1016,3 12 0 -
19.09.2020 01:00:00 17,2 14,4 18 10 34 18 ZZW 1016,0 13 0 0,0
19.09.2020 00:00:00 16,4 14,6 14 8 23 13 Z 1016,1 13 0 0,0
18.09.2020 23:00:00 - - - - - - - - - - -
18.09.2020 22:00:00 - - - - - - - - - - -
18.09.2020 21:00:00 15,8 15,2 5 3 14 7 Z 1014,5 15 0 0,0
18.09.2020 20:00:00 15,9 15,4 9 5 16 9 Z 1014,8 14 0 -
18.09.2020 19:00:00 - - - - - - - - - - -
18.09.2020 18:00:00 16,0 15,7 7 4 - - WNW 1014,5 8 0 7,4
18.09.2020 17:00:00 22,4 11,8 - - - - - 1010,0 12 17 0,0
18.09.2020 16:00:00 23,4 10,0 11 6 - - O 1010,6 12 60 0,0
18.09.2020 15:00:00 21,9 11,6 10 6 18 10 O 1012,1 13 43 0,0
18.09.2020 14:00:00 17,7 14,0 4 2 40 22 NO 1014,2 12 4 -
18.09.2020 13:00:00 - - - - - - - - - - -
18.09.2020 12:00:00 20,3 13,3 16 9 34 19 Z 1012,7 11 0 0,0
18.09.2020 11:00:00 20,5 13,0 13 7 23 12 Z 1013,3 10 0 0,0
18.09.2020 10:00:00 20,0 12,7 14 8 21 11 ZZW 1013,0 10 0 0,0
18.09.2020 09:00:00 19,0 12,2 10 6 23 13 Z 1013,0 11 0 0,0
18.09.2020 08:00:00 18,9 12,2 17 9 35 19 Z 1012,3 11 0 -
18.09.2020 07:00:00 19,3 11,6 21 11 41 22 Z 1011,7 11 0 0,0
18.09.2020 06:00:00 20,2 10,9 23 12 36 20 Z 1011,8 11 0 0,0
18.09.2020 05:00:00 20,6 10,6 22 12 37 20 Z 1012,0 11 0 0,0
18.09.2020 04:00:00 - - - - - - - - - - -
18.09.2020 03:00:00 20,6 11,8 19 10 41 22 Z 1012,7 11 0 0,0
18.09.2020 02:00:00 21,1 12,2 18 10 31 17 Z 1012,5 11 0 -
18.09.2020 01:00:00 - - - - - - - - - - -
18.09.2020 00:00:00 21,3 16,9 15 8 26 14 Z 1012,9 10 0 0,0
17.09.2020 23:00:00 20,0 17,1 5 3 16 9 OZO 1012,9 10 0 0,0
17.09.2020 22:00:00 - - - - - - - - - - -
17.09.2020 21:00:00 21,1 15,9 6 4 41 22 ZZW 1012,1 10 0 0,6
17.09.2020 20:00:00 26,2 13,7 8 4 22 12 ZZW 1010,8 9 0 -
17.09.2020 19:00:00 - - - - - - - - - - -
17.09.2020 18:00:00 - - - - - - - - - - -
17.09.2020 17:00:00 28,6 11,7 16 9 31 17 ZW 1010,6 10 40 0,0
17.09.2020 16:00:00 - - - - - - - - - - -
17.09.2020 15:00:00 26,4 12,4 16 8 32 17 ZZW 1012,6 9 2 0,0
17.09.2020 14:00:00 25,7 13,3 17 9 33 18 ZZW 1013,1 9 0 -
17.09.2020 13:00:00 24,4 13,6 15 8 25 14 Z 1014,1 10 0 0,0
17.09.2020 12:00:00 24,4 14,2 11 6 25 13 ZZW 1014,3 10 21 0,0
17.09.2020 11:00:00 22,5 15,1 11 6 17 9 Z 1014,7 10 0 0,0
17.09.2020 10:00:00 20,5 16,1 6 3 11 6 ZZO 1014,8 11 0 0,0
17.09.2020 09:00:00 18,7 15,8 8 5 12 6 OZO 1014,9 10 0 0,0
17.09.2020 08:00:00 18,4 15,6 7 4 12 6 O 1014,8 11 0 -
17.09.2020 07:00:00 18,5 15,5 8 4 - - O 1014,7 10 0 0,0
17.09.2020 06:00:00 18,3 16,3 - - - - - 1014,9 10 0 0,0
17.09.2020 05:00:00 18,2 16,7 9 5 - - O 1015,2 10 0 0,0
17.09.2020 04:00:00 18,1 16,8 - - - - - 1016,0 9 0 0,4
17.09.2020 03:00:00 18,8 17,0 - - - - - 1016,8 4,5 0 1,0
17.09.2020 02:00:00 19,6 16,0 - - - - - 1017,2 10 0 -
17.09.2020 01:00:00 22,6 12,8 12 7 38 21 W 1016,0 10 0 0,0
17.09.2020 00:00:00 26,2 8,3 6 4 21 12 WZW 1013,9 10 0 0,0
16.09.2020 23:00:00 26,5 11,0 9 5 25 14 ZW 1013,5 11 0 0,0
16.09.2020 22:00:00 27,4 10,2 14 8 27 14 Z 1012,8 10 0 0,0
16.09.2020 21:00:00 28,8 9,0 15 8 - - ZZO 1011,9 10 0 0,0
16.09.2020 20:00:00 30,1 7,8 2 1 - - ONO 1011,1 8 2 -
16.09.2020 19:00:00 31,0 7,4 - - - - - 1011,0 11 0 0,0
16.09.2020 18:00:00 31,1 8,8 - - - - - 1011,4 11 21 0,0
16.09.2020 17:00:00 31,4 9,6 11 6 19 10 ONO 1011,8 10 41 0,0
16.09.2020 16:00:00 30,8 10,2 - - - - - 1012,8 8 25 0,0
16.09.2020 15:00:00 30,5 9,9 9 5 18 10 O 1013,8 10 47 0,0
16.09.2020 14:00:00 29,7 10,3 9 5 19 10 O 1014,9 8 59 -
16.09.2020 13:00:00 29,3 10,4 5 3 11 6 ZZW 1016,0 9 60 0,0
16.09.2020 12:00:00 27,5 10,3 4 2 8 5 W 1016,9 10 60 0,0
16.09.2020 11:00:00 25,1 10,9 4 2 9 5 ZO 1017,6 12 60 0,0

tt = temperatuur
td = dauwpunt
ff = windsnelheid
fx = windstoten
dd = windrichting
ppp = luchtdruk
vv = zicht
sd = Zonneschijnduur
rr = neerslag

Weerstations in de omgeving